K4DNM Weather Reports


Display with metric or nautical units.
time (UTC)temp
F
wind
direction
speed
MPH
gust
MPH
rain 1hr
in
rain 24hr
in
rain mn
in
humidity
%
barometer
mb
20260906030205 74 0 0.0 2.0 0.00 0.36 0.36 97 1010.5
20260906025810 74 0 0.0 2.0 0.00 0.36 0.36 97 1010.5
20260906025652 74 0 0.0 2.0 0.00 0.36 0.36 97 1010.5
20260906025306 74 0 0.0 1.0 0.00 0.37 0.36 97 1010.6
20260906025147 74 0 0.0 1.0 0.00 0.37 0.36 97 1010.6
20260906024543 74 0 0.0 1.0 0.00 0.37 0.36 97 1010.6
20260906024305 74 0 0.0 2.0 0.00 0.38 0.36 97 1010.6
20260906024146 74 0 0.0 2.0 0.00 0.38 0.36 97 1010.6
20260906023543 74 0 0.0 2.0 0.00 0.47 0.36 97 1010.7
20260906023311 74 0 0.0 1.0 0.00 0.60 0.36 97 1010.7
20260906023156 74 0 0.0 1.0 0.00 0.60 0.36 97 1010.7
20260906022806 74 0 0.0 1.0 0.00 0.83 0.36 97 1010.6
20260906022641 74 0 0.0 1.0 0.00 0.83 0.36 97 1010.6
20260906022035 74 0 0.0 0.0 0.00 0.93 0.36 97 1010.7
20260906021534 73 0 0.0 0.0 0.00 0.97 0.36 96 1010.7
20260906021033 73 0 0.0 0.0 0.00 0.98 0.36 96 1010.6
20260906020804 73 0 0.0 0.0 0.00 0.98 0.36 96 1010.6
20260906020640 73 0 0.0 0.0 0.00 0.98 0.36 96 1010.6
20260906020030 73 0 0.0 0.0 0.00 0.98 0.36 96 1010.6
20260906015527 73 0 0.0 1.0 0.00 0.99 0.36 96 1010.6
20260906015025 74 0 0.0 1.0 0.00 0.99 0.36 96 1010.6
20260906014525 74 0 0.0 1.0 0.00 1.00 0.36 96 1010.7
20260906014249 74 0 0.0 0.0 0.00 1.00 0.36 96 1010.6
20260906014127 74 0 0.0 0.0 0.00 1.00 0.36 96 1010.6
20260906013524 74 0 0.0 1.0 0.00 1.00 0.36 96 1010.4
20260906013245 74 40 0.0 1.0 0.00 1.01 0.36 96 1010.4
20260906013124 74 40 0.0 1.0 0.00 1.01 0.36 96 1010.4
20260906012520 74 0 0.0 1.0 0.00 1.02 0.36 96 1010.3
20260906012018 74 0 0.0 1.0 0.00 1.03 0.36 96 1010.3
20260906011516 74 230 0.0 1.0 0.00 1.04 0.36 96 1010.3
20260906011014 74 0 0.0 2.0 0.00 1.04 0.36 96 1010.3
20260906010526 74 0 0.0 2.0 0.00 1.04 0.36 96 1010.3
20260906010011 74 0 0.0 0.0 0.00 1.04 0.36 96 1010.2
20260906005509 74 0 0.0 2.0 0.00 1.04 0.36 96 1010.2
20260906005005 74 0 0.0 2.0 0.00 1.04 0.36 96 1010.1
20260906004729 73 0 0.0 0.0 0.00 1.04 0.36 96 1010.0
20260906004607 73 0 0.0 0.0 0.00 1.04 0.36 96 1010.0
20260906004006 73 0 0.0 1.0 0.00 1.04 0.36 96 1009.9
20260906003459 73 0 0.0 1.0 0.00 1.04 0.36 96 1010.0
20260906002959 73 0 0.0 0.0 0.00 1.04 0.36 96 1010.0
20260906002456 73 0 0.0 0.0 0.00 1.04 0.36 96 1009.9
20260906001957 73 0 0.0 0.0 0.00 1.04 0.36 96 1009.8
20260906001455 73 0 0.0 0.0 0.00 1.04 0.36 96 1009.8
20260906001218 73 0 0.0 1.0 0.00 1.04 0.36 96 1009.9
20260906001057 73 0 0.0 1.0 0.00 1.04 0.36 96 1009.9
20260906000712 73 0 0.0 2.0 0.00 1.04 0.36 96 1009.9
20260906000556 73 0 0.0 2.0 0.00 1.04 0.36 96 1009.9
20260905235950 73 0 0.0 2.0 0.00 1.04 0.36 96 1009.7
20260905235718 73 231 0.0 2.0 0.00 1.04 0.36 96 1009.5
20260905235553 73 231 0.0 2.0 0.00 1.04 0.36 96 1009.5
20260905234950 73 239 0.0 1.0 0.00 1.04 0.36 96 1009.3
20260905234446 73 0 0.0 2.0 0.00 1.04 0.36 96 1009.0
20260905233946 73 0 0.0 2.0 0.00 1.04 0.36 96 1008.8
20260905233443 73 0 0.0 2.0 0.00 1.04 0.36 96 1008.8
20260905232941 73 0 0.0 2.0 0.00 1.04 0.36 96 1008.8
20260905232440 73 0 1.0 3.0 0.00 1.04 0.36 96 1009.1
20260905231937 74 226 1.0 3.0 0.00 1.04 0.36 96 1009.1
20260905231658 74 0 0.0 1.0 0.00 1.04 0.36 96 1009.0
20260905231540 74 0 0.0 1.0 0.00 1.04 0.36 96 1009.0
20260905230935 74 0 0.0 3.0 0.00 1.04 0.36 96 1008.9
20260905230429 74 0 0.0 3.0 0.00 1.04 0.36 96 1008.9
20260905225926 74 116 1.0 3.0 0.00 1.04 0.36 96 1008.8
20260905225425 74 75 2.0 4.0 0.00 1.04 0.36 96 1008.6
20260905224924 74 123 1.0 4.0 0.00 1.04 0.36 96 1008.7
20260905224422 74 0 0.0 2.0 0.00 1.04 0.36 96 1008.7
20260905223920 74 0 0.0 2.0 0.00 1.04 0.36 96 1008.7
20260905223419 73 0 0.0 2.0 0.00 1.04 0.36 96 1008.9
20260905222916 73 135 0.0 2.0 0.00 1.04 0.36 96 1009.0
20260905222649 73 0 0.0 2.0 0.00 1.04 0.36 95 1008.9
20260905222524 73 0 0.0 2.0 0.00 1.04 0.36 95 1008.9
20260905221915 73 219 0.0 2.0 0.00 1.04 0.36 95 1008.5
20260905221413 73 0 0.0 1.0 0.00 1.04 0.36 95 1008.3
20260905220912 73 0 0.0 1.0 0.00 1.04 0.36 95 1008.3
20260905220410 73 0 0.0 2.0 0.00 1.04 0.36 95 1008.4
20260905215908 73 0 0.0 2.0 0.01 1.04 0.36 95 1008.7
20260905215406 73 0 0.0 2.0 0.01 1.04 0.36 95 1008.7
20260905214905 73 237 1.0 3.0 0.01 1.04 0.36 95 1008.7
20260905214627 73 137 1.0 3.0 0.01 1.04 0.36 95 1008.5
20260905214510 73 137 1.0 3.0 0.01 1.04 0.36 95 1008.5
20260905213907 72 207 0.0 2.0 0.01 1.04 0.36 95 1008.5
20260905213404 72 0 0.0 2.0 0.01 1.04 0.36 94 1008.4
20260905212905 72 231 1.0 2.0 0.02 1.04 0.36 94 1008.2
20260905212400 72 215 0.0 2.0 0.03 1.04 0.36 94 1008.1
20260905211900 72 0 0.0 1.0 0.07 1.04 0.36 94 1008.1
20260905211358 72 242 0.0 1.0 0.19 1.03 0.35 93 1008.2
20260905210858 72 0 0.0 1.0 0.28 1.03 0.35 93 1008.3
20260905210357 73 0 0.0 2.0 0.35 1.03 0.35 93 1008.3
20260905210117 73 234 0.0 2.0 0.35 1.02 0.35 92 1008.3
20260905205958 73 234 0.0 2.0 0.35 1.02 0.35 92 1008.3
20260905205351 73 0 0.0 1.0 0.35 1.02 0.35 92 1008.6
20260905205112 73 0 0.0 2.0 0.35 1.02 0.35 91 1008.6
20260905204956 73 0 0.0 2.0 0.35 1.02 0.35 91 1008.6
20260905204349 73 0 1.0 4.0 0.35 1.02 0.35 91 1008.5
20260905203847 73 203 2.0 4.0 0.35 1.02 0.35 90 1008.8
20260905203347 74 243 2.0 6.0 0.35 1.02 0.35 88 1009.1
20260905203115 74 159 1.0 6.0 0.34 1.02 0.34 87 1008.9
20260905202949 74 159 1.0 6.0 0.34 1.02 0.34 87 1008.9
20260905202344 75 261 1.0 4.0 0.33 1.01 0.33 90 1009.0
20260905201840 76 47 2.0 6.0 0.28 0.96 0.28 89 1009.4
20260905201337 79 22 1.0 6.0 0.17 0.84 0.17 85 1010.2
20260905200839 83 196 3.0 10.0 0.08 0.76 0.08 82 1010.5
20260905200336 88 325 3.0 10.0 0.00 0.68 0.00 69 1009.8
20260905200318 91 343 2.0 6.0 0.00 0.68 0.00 73 1009.6
20260905195936 91 343 2.0 6.0 0.00 0.68 0.00 73 1009.6
20260905195327 92 327 0.0 2.0 0.00 0.68 0.00 67 1008.6
20260905194824 93 0 0.0 2.0 0.00 0.68 0.00 65 1007.9
20260905194321 93 0 0.0 3.0 0.00 0.68 0.00 62 1008.1
20260905193820 93 16 1.0 3.0 0.00 0.68 0.00 62 1008.2
20260905193318 94 44 1.0 4.0 0.00 0.68 0.00 59 1008.0
20260905192820 95 59 2.0 4.0 0.00 0.68 0.00 60 1008.1
20260905192317 95 50 1.0 4.0 0.00 0.68 0.00 58 1008.3
20260905191815 96 0 1.0 2.0 0.00 0.68 0.00 56 1008.4
20260905191315 95 0 1.0 5.0 0.00 0.68 0.00 56 1008.2
20260905190815 95 123 1.0 5.0 0.00 0.68 0.00 55 1008.2
20260905190314 94 0 2.0 6.0 0.00 0.68 0.00 58 1008.3
20260905185813 94 0 2.0 6.0 0.00 0.68 0.00 58 1008.4
20260905185310 95 93 3.0 6.0 0.00 0.68 0.00 58 1008.3
20260905184808 95 353 2.0 6.0 0.00 0.68 0.00 56 1008.3
20260905184529 95 109 2.0 5.0 0.00 0.68 0.00 55 1008.3
20260905184413 95 109 2.0 5.0 0.00 0.68 0.00 55 1008.3
20260905183806 96 31 2.0 5.0 0.00 0.68 0.00 55 1008.4
20260905183305 97 102 1.0 4.0 0.00 0.68 0.00 54 1008.6
20260905182816 97 0 1.0 2.0 0.00 0.68 0.00 52 1008.7
20260905182305 96 355 1.0 2.0 0.00 0.68 0.00 57 1008.7
20260905181759 96 283 1.0 2.0 0.00 0.68 0.00 55 1008.8
20260905181520 96 295 1.0 3.0 0.00 0.68 0.00 54 1008.9
20260905181406 96 295 1.0 3.0 0.00 0.68 0.00 54 1008.9
20260905181030 97 334 1.0 3.0 0.00 0.68 0.00 57 1008.9
20260905180902 97 334 1.0 3.0 0.00 0.68 0.00 57 1008.9
20260905180256 97 298 1.0 2.0 0.00 0.68 0.00 55 1009.1
20260905175756 96 335 1.0 2.0 0.00 0.68 0.00 55 1009.2
20260905175254 96 336 1.0 2.0 0.00 0.68 0.00 59 1009.3
20260905174751 96 279 1.0 3.0 0.00 0.68 0.00 55 1009.4
20260905174249 97 242 1.0 3.0 0.00 0.68 0.00 51 1009.5
20260905173749 97 346 1.0 3.0 0.00 0.68 0.00 52 1009.6
20260905173249 97 342 1.0 3.0 0.00 0.68 0.00 52 1009.7
20260905172802 97 313 1.0 3.0 0.00 0.68 0.00 53 1009.8
20260905172248 96 35 1.0 3.0 0.00 0.68 0.00 53 1009.9
20260905171747 96 316 1.0 3.0 0.00 0.68 0.00 56 1009.9
20260905171251 96 322 1.0 2.0 0.00 0.68 0.00 60 1010.0
20260905170747 96 334 1.0 2.0 0.00 0.68 0.00 53 1010.0
20260905170243 96 318 1.0 2.0 0.00 0.68 0.00 59 1010.0
20260905165740 95 336 1.0 2.0 0.00 0.68 0.00 57 1010.0
20260905165241 95 0 1.0 3.0 0.00 0.68 0.00 62 1010.2
20260905164741 95 326 1.0 3.0 0.00 0.68 0.00 59 1010.2
20260905164256 95 304 1.0 3.0 0.00 0.68 0.00 60 1010.3
20260905163738 94 351 1.0 3.0 0.00 0.68 0.00 58 1010.4
20260905163237 95 339 1.0 3.0 0.00 0.68 0.00 58 1010.4
20260905163213 95 298 1.0 3.0 0.00 0.68 0.00 61 1010.4
20260905162839 95 298 1.0 3.0 0.00 0.68 0.00 61 1010.4
20260905162232 95 0 1.0 3.0 0.00 0.68 0.00 60 1010.5
20260905161727 95 331 1.0 3.0 0.00 0.68 0.00 58 1010.6
20260905161227 94 337 1.0 3.0 0.00 0.68 0.00 61 1010.7
20260905160729 94 195 1.0 3.0 0.00 0.68 0.00 59 1010.8
20260905160221 94 313 1.0 3.0 0.00 0.68 0.00 63 1010.8
20260905155721 94 0 1.0 4.0 0.00 0.68 0.00 61 1010.9
20260905155218 93 328 1.0 4.0 0.00 0.68 0.00 63 1011.0
20260905154713 93 334 1.0 5.0 0.00 0.68 0.00 63 1011.1
20260905154433 92 18 1.0 5.0 0.00 0.68 0.00 66 1011.1
20260905154316 92 18 1.0 5.0 0.00 0.68 0.00 66 1011.1
20260905153714 92 305 1.0 4.0 0.00 0.68 0.00 67 1011.1
20260905153210 92 334 2.0 4.0 0.00 0.68 0.00 65 1011.0
20260905152710 92 305 2.0 3.0 0.00 0.68 0.00 66 1011.0
20260905152207 92 211 2.0 4.0 0.00 0.68 0.00 66 1011.1
20260905151707 92 332 2.0 4.0 0.00 0.68 0.00 69 1011.2
20260905151203 92 309 2.0 3.0 0.00 0.68 0.00 66 1011.2
20260905150705 91 327 1.0 5.0 0.00 0.68 0.00 66 1011.2
20260905150201 91 258 1.0 5.0 0.00 0.68 0.00 70 1011.2
20260905145702 91 180 1.0 5.0 0.00 0.68 0.00 67 1011.2
20260905145159 90 73 1.0 5.0 0.00 0.68 0.00 69 1011.1
20260905144656 90 0 1.0 3.0 0.00 0.68 0.00 69 1011.1
20260905144155 89 344 1.0 4.0 0.00 0.68 0.00 71 1011.1
20260905143654 89 0 1.0 4.0 0.00 0.68 0.00 71 1011.1
20260905143152 89 289 1.0 4.0 0.00 0.68 0.00 71 1011.1
20260905142650 89 343 1.0 2.0 0.00 0.68 0.00 74 1011.2
20260905142149 88 331 1.0 2.0 0.00 0.68 0.00 74 1011.2
20260905141652 88 358 1.0 3.0 0.00 0.68 0.00 74 1011.1
20260905141413 87 204 1.0 3.0 0.00 0.68 0.00 74 1011.2
20260905141252 87 204 1.0 3.0 0.00 0.68 0.00 74 1011.2
20260905140648 87 357 1.0 3.0 0.00 0.68 0.00 76 1011.1
20260905140147 86 191 1.0 2.0 0.00 0.68 0.00 77 1011.1
20260905135904 85 322 1.0 3.0 0.00 0.68 0.00 79 1011.1
20260905135751 85 322 1.0 3.0 0.00 0.68 0.00 79 1011.1
20260905135145 85 268 1.0 3.0 0.00 0.68 0.00 79 1011.1
20260905134644 85 22 1.0 4.0 0.00 0.68 0.00 80 1011.0
20260905134144 85 0 1.0 4.0 0.00 0.68 0.00 78 1011.2
20260905133644 85 313 1.0 2.0 0.00 0.68 0.00 80 1011.2
20260905133405 84 0 1.0 3.0 0.00 0.68 0.00 82 1011.1
20260905133247 84 0 1.0 3.0 0.00 0.68 0.00 82 1011.1
20260905132641 83 0 0.0 3.0 0.00 0.68 0.00 82 1011.1
20260905132138 83 322 0.0 3.0 0.00 0.68 0.00 82 1011.1
20260905131638 83 0 0.0 3.0 0.00 0.68 0.00 82 1011.1
20260905131136 83 224 0.0 3.0 0.00 0.68 0.00 83 1011.1
20260905130635 82 0 1.0 3.0 0.00 0.68 0.00 83 1011.2
20260905130356 82 351 1.0 4.0 0.00 0.68 0.00 86 1011.3
20260905130237 82 351 1.0 4.0 0.00 0.68 0.00 86 1011.3
20260905125633 81 314 1.0 4.0 0.00 0.68 0.00 88 1011.3
20260905125133 80 310 1.0 6.0 0.00 0.68 0.00 91 1011.4
20260905124630 79 228 2.0 7.0 0.00 0.68 0.00 91 1011.4
20260905124130 78 237 2.0 7.0 0.00 0.68 0.00 94 1011.5
20260905123628 77 227 2.0 10.0 0.00 0.68 0.00 95 1011.5
20260905123127 76 35 5.0 15.0 0.00 0.68 0.00 95 1011.4
20260905122625 76 43 8.0 15.0 0.00 0.68 0.00 95 1011.4
20260905122340 75 71 8.0 13.0 0.00 0.68 0.00 96 1011.3
20260905122228 75 71 8.0 13.0 0.00 0.68 0.00 96 1011.3
20260905121621 75 85 8.0 11.0 0.00 0.68 0.00 96 1011.3
20260905121120 74 87 9.0 11.0 0.00 0.68 0.00 96 1011.3
20260905120619 74 78 8.0 10.0 0.00 0.68 0.00 96 1011.3
20260905120131 74 85 5.0 10.0 0.00 0.68 0.00 96 1011.2
20260905115612 74 106 5.0 10.0 0.00 0.68 0.00 97 1011.3
20260905115105 73 102 6.0 10.0 0.00 0.68 0.00 97 1011.2
20260905114600 73 104 6.0 10.0 0.00 0.68 0.00 97 1011.2
20260905114059 73 99 7.0 10.0 0.00 0.68 0.00 97 1011.1
20260905113602 72 95 7.0 10.0 0.00 0.68 0.00 97 1011.0
20260905113055 72 95 7.0 10.0 0.00 0.68 0.00 97 1010.9
20260905112555 71 106 7.0 10.0 0.00 0.68 0.00 97 1010.9
20260905112057 71 91 7.0 10.0 0.00 0.68 0.00 97 1010.9
20260905111550 71 96 7.0 10.0 0.00 0.68 0.00 97 1010.9
20260905111043 71 100 7.0 10.0 0.00 0.68 0.00 97 1010.9
20260905110540 71 90 7.0 10.0 0.00 0.68 0.00 97 1010.9
20260905110316 71 98 7.0 11.0 0.00 0.68 0.00 97 1010.8
20260905110147 71 98 7.0 11.0 0.00 0.68 0.00 97 1010.8
20260905105551 71 96 7.0 11.0 0.00 0.68 0.00 97 1010.8
20260905105038 71 91 7.0 10.0 0.00 0.68 0.00 97 1010.7
20260905104530 71 87 7.0 10.0 0.00 0.68 0.00 97 1010.6
20260905104026 71 95 7.0 10.0 0.00 0.68 0.00 97 1010.5
20260905103519 71 85 7.0 10.0 0.00 0.68 0.00 97 1010.5
20260905103013 71 93 6.0 10.0 0.00 0.68 0.00 97 1010.4
20260905102517 71 88 6.0 10.0 0.00 0.68 0.00 97 1010.3
20260905102012 71 107 7.0 11.0 0.00 0.68 0.00 97 1010.3
20260905101512 71 82 7.0 11.0 0.00 0.68 0.00 97 1010.4
20260905101009 71 95 7.0 10.0 0.00 0.68 0.00 97 1010.3
20260905100951 71 96 7.0 10.0 0.00 0.68 0.00 97 1010.3
20260905100613 71 96 7.0 10.0 0.00 0.68 0.00 97 1010.3
20260905100001 71 89 7.0 10.0 0.00 0.68 0.00 97 1010.3
20260905095459 71 92 6.0 10.0 0.00 0.68 0.00 97 1010.3
20260905094957 71 99 6.0 9.0 0.00 0.68 0.00 97 1010.2
20260905094449 71 86 7.0 11.0 0.00 0.68 0.00 97 1010.2
20260905094205 71 108 7.0 11.0 0.00 0.68 0.00 97 1010.3
20260905094049 71 108 7.0 11.0 0.00 0.68 0.00 97 1010.3
20260905093436 71 92 7.0 10.0 0.00 0.68 0.00 97 1010.3
20260905093203 71 101 7.0 11.0 0.00 0.68 0.00 97 1010.4
20260905093036 71 101 7.0 11.0 0.00 0.68 0.00 97 1010.4
20260905092430 71 77 7.0 11.0 0.00 0.68 0.00 97 1010.4
20260905091930 71 88 6.0 10.0 0.00 0.68 0.00 97 1010.4
20260905091426 71 105 7.0 10.0 0.00 0.68 0.00 97 1010.4
20260905091151 71 96 7.0 10.0 0.00 0.68 0.00 97 1010.4
20260905091032 71 96 7.0 10.0 0.00 0.68 0.00 97 1010.4
20260905090426 71 88 7.0 10.0 0.00 0.68 0.00 97 1010.4
20260905085921 71 82 6.0 9.0 0.00 0.68 0.00 97 1010.4
20260905085418 71 83 7.0 10.0 0.00 0.68 0.00 97 1010.5
20260905084917 71 98 7.0 11.0 0.00 0.68 0.00 97 1010.5
20260905084416 71 92 7.0 11.0 0.00 0.68 0.00 97 1010.6
20260905083915 71 89 6.0 9.0 0.00 0.68 0.00 97 1010.6
20260905083408 71 102 7.0 11.0 0.00 0.68 0.00 97 1010.7
20260905082906 71 94 7.0 11.0 0.00 0.68 0.00 97 1010.9
20260905082407 71 89 7.0 10.0 0.00 0.68 0.00 97 1010.9
20260905081904 71 83 7.0 10.0 0.00 0.68 0.00 97 1010.9
20260905081402 71 86 7.0 11.0 0.00 0.68 0.00 96 1010.9
20260905080901 71 98 7.0 11.0 0.00 0.68 0.00 96 1011.0
20260905080401 71 94 7.0 10.0 0.00 0.68 0.00 96 1011.0
20260905080120 71 96 7.0 10.0 0.00 0.68 0.00 96 1011.0
20260905080005 71 96 7.0 10.0 0.00 0.68 0.00 96 1011.0
20260905075852 71 96 7.0 10.0 0.00 0.68 0.00 96 1011.1
20260905075505 71 96 7.0 10.0 0.00 0.68 0.00 96 1011.1
20260905074901 71 90 7.0 10.0 0.00 0.68 0.00 96 1011.2
20260905074404 71 100 7.0 10.0 0.00 0.68 0.00 96 1011.1
20260905073858 71 112 6.0 10.0 0.00 0.68 0.00 96 1011.2
20260905073359 71 82 7.0 11.0 0.00 0.68 0.00 96 1011.2
20260905072851 71 89 6.0 11.0 0.00 0.68 0.00 96 1011.3
20260905072351 71 90 8.0 14.0 0.00 0.68 0.00 96 1011.4
20260905071849 71 63 9.0 14.0 0.00 0.68 0.00 96 1011.4
20260905071348 71 55 7.0 12.0 0.00 0.68 0.00 96 1011.6
20260905071110 71 53 2.0 6.0 0.00 0.68 0.00 96 1011.6
20260905070953 71 53 2.0 6.0 0.00 0.68 0.00 96 1011.6
20260905070341 71 45 2.0 3.0 0.00 0.68 0.00 96 1011.6
20260905070331 71 271 2.0 3.0 0.00 0.68 0.00 96 1011.6
20260905065841 71 197 2.0 3.0 0.00 0.68 0.00 96 1011.6
20260905065819 71 242 2.0 3.0 0.00 0.68 0.00 96 1011.6
20260905065526 71 252 2.0 2.0 0.00 0.68 0.00 96 1011.7
20260905065412 71 251 2.0 2.0 0.00 0.68 0.00 96 1011.7
20260905065029 71 226 2.0 3.0 0.00 0.68 0.00 96 1011.7
20260905064909 71 229 2.0 3.0 0.00 0.68 0.00 96 1011.7
20260905064314 71 228 2.0 7.0 0.00 0.68 0.00 96 1011.7
20260905064300 71 231 2.0 7.0 0.00 0.68 0.00 96 1011.7
20260905064015 71 234 2.0 7.0 0.00 0.68 0.00 96 1011.7
20260905063901 71 230 2.0 7.0 0.00 0.68 0.00 96 1011.7
20260905063300 71 230 3.0 7.0 0.00 0.68 0.00 96 1011.8
20260905063246 71 213 3.0 7.0 0.00 0.68 0.00 96 1011.8
20260905062759 71 229 3.0 7.0 0.00 0.68 0.00 96 1011.9
20260905062747 71 226 3.0 7.0 0.00 0.68 0.00 96 1011.9
20260905062259 72 219 3.0 6.0 0.00 0.68 0.00 96 1012.1
20260905062243 72 214 3.0 6.0 0.00 0.68 0.00 96 1012.1
20260905061752 72 83 3.0 6.0 0.00 0.68 0.00 96 1012.3
20260905061744 72 234 3.0 6.0 0.00 0.68 0.00 96 1012.3
20260905061249 72 99 2.0 3.0 0.00 0.68 0.00 96 1012.3
20260905061244 72 207 2.0 3.0 0.00 0.68 0.00 96 1012.3
20260905060742 72 226 2.0 3.0 0.00 0.68 0.00 96 1012.4
20260905060736 72 222 2.0 3.0 0.00 0.68 0.00 96 1012.4
20260905060242 72 234 2.0 4.0 0.00 0.68 0.00 96 1012.6
20260905060219 72 228 2.0 4.0 0.00 0.68 0.00 96 1012.6
20260905055743 71 230 2.0 4.0 0.00 0.68 0.00 96 1012.7
20260905055702 71 227 2.0 4.0 0.00 0.68 0.00 96 1012.7
20260905055421 71 231 2.0 3.0 0.00 0.68 0.00 96 1012.8
20260905055258 71 227 2.0 3.0 0.00 0.68 0.00 96 1012.7
20260905054728 71 230 2.0 7.0 0.00 0.68 0.00 96 1012.9
20260905054644 71 229 2.0 7.0 0.00 0.68 0.00 96 1012.9
20260905054227 71 228 2.0 9.0 0.00 0.68 0.00 96 1013.0
20260905054135 71 229 2.0 9.0 0.00 0.68 0.00 96 1013.0
20260905053721 71 227 3.0 9.0 0.00 0.68 0.00 96 1013.0
20260905053629 71 226 3.0 9.0 0.00 0.68 0.00 96 1013.0
20260905053213 71 234 4.0 9.0 0.00 0.68 0.00 96 1013.0
20260905053125 71 239 4.0 9.0 0.00 0.68 0.00 96 1013.0
20260905052712 71 50 3.0 9.0 0.00 0.68 0.00 96 1012.9
20260905052616 71 260 3.0 9.0 0.00 0.68 0.00 96 1012.9
20260905052201 71 230 3.0 9.0 0.00 0.68 0.00 96 1012.9
20260905052111 71 231 3.0 9.0 0.00 0.68 0.00 96 1012.9
20260905051656 71 242 3.0 9.0 0.00 0.68 0.00 96 1012.9
20260905051604 71 72 3.0 9.0 0.00 0.68 0.00 96 1012.9
20260905051149 71 241 3.0 9.0 0.00 0.68 0.00 96 1012.9
20260905051104 71 238 3.0 9.0 0.00 0.68 0.00 96 1012.9
20260905050646 71 239 2.0 3.0 0.00 0.68 0.00 96 1013.0
20260905050604 71 244 2.0 3.0 0.00 0.68 0.00 96 1013.0
20260905050132 71 240 2.0 3.0 0.00 0.68 0.00 96 1013.0
20260905050100 71 239 2.0 3.0 0.00 0.68 0.00 95 1013.1
20260905050031 71 242 2.0 3.0 0.00 0.68 0.00 95 1013.2
20260905045655 71 241 2.0 3.0 0.00 0.68 0.00 95 1013.2
20260905045059 71 243 2.0 3.0 0.00 0.68 0.00 95 1013.3
20260905045035 71 237 2.0 3.0 0.00 0.68 0.00 95 1013.3
20260905044544 71 245 2.0 2.0 0.00 0.68 0.00 95 1013.3
20260905044520 71 241 2.0 2.0 0.00 0.68 0.00 95 1013.3
20260905044044 72 239 2.0 3.0 0.00 0.68 0.00 95 1013.2
20260905044005 72 238 2.0 3.0 0.00 0.68 0.00 95 1013.2
20260905043532 71 241 3.0 11.0 0.00 0.68 0.00 95 1013.2
20260905043452 71 243 3.0 11.0 0.00 0.68 0.00 95 1013.2
20260905043028 71 239 2.0 11.0 0.00 0.68 0.00 95 1013.2
20260905042948 71 240 2.0 11.0 0.00 0.68 0.00 95 1013.2
20260905042522 71 227 2.0 3.0 0.00 0.68 0.00 95 1013.2
20260905042441 71 226 2.0 3.0 0.00 0.68 0.00 95 1013.2
20260905042022 71 227 2.0 3.0 0.00 0.68 0.00 95 1013.4
20260905041939 71 226 2.0 11.0 0.00 0.68 0.00 95 1013.4
20260905041519 71 227 2.0 11.0 0.00 0.68 0.00 95 1013.3
20260905041437 71 227 2.0 11.0 0.00 0.68 0.00 95 1013.3
20260905041420 71 222 2.0 11.0 0.00 0.68 0.00 95 1013.4
20260905041049 71 228 2.0 11.0 0.00 0.68 0.00 95 1013.4
20260905040517 71 227 2.0 3.0 0.00 0.68 0.00 95 1013.6
20260905040434 71 230 2.0 6.0 0.00 0.68 0.00 95 1013.6
20260905040018 71 228 2.0 6.0 0.00 0.68 0.00 95 1013.6
20260905035933 71 230 2.0 6.0 0.00 0.68 0.68 95 1013.6
20260905035514 72 232 2.0 6.0 0.00 0.68 0.68 94 1013.6
20260905035431 72 227 2.0 6.0 0.01 0.68 0.68 94 1013.6
20260905035013 72 231 2.0 6.0 0.01 0.68 0.68 94 1013.7
20260905034930 72 71 2.0 6.0 0.01 0.68 0.68 94 1013.6
20260905034512 72 234 2.0 6.0 0.01 0.68 0.68 94 1013.4
20260905034428 72 192 2.0 6.0 0.01 0.68 0.68 94 1013.4
20260905034009 72 219 2.0 8.0 0.02 0.68 0.68 94 1013.4
20260905033928 72 219 3.0 9.0 0.03 0.68 0.68 94 1013.4
20260905033647 72 220 3.0 9.0 0.11 0.68 0.68 94 1013.6
20260905033539 72 238 3.0 9.0 0.11 0.68 0.68 94 1013.6
20260905033006 72 193 3.0 9.0 0.24 0.68 0.68 94 1013.8
20260905032923 72 238 3.0 12.0 0.35 0.68 0.68 94 1013.8
20260905032637 72 226 3.0 12.0 0.52 0.68 0.68 94 1013.7
20260905032530 72 140 3.0 12.0 0.47 0.68 0.68 94 1013.7
20260905031955 72 61 2.0 12.0 0.57 0.68 0.68 94 1013.7
20260905031912 72 66 2.0 10.0 0.58 0.68 0.68 94 1013.7
20260905031650 72 83 2.0 5.0 0.61 0.68 0.68 94 1013.6
20260905031531 72 178 2.0 5.0 0.61 0.68 0.68 94 1013.6
20260905030956 72 99 3.0 5.0 0.63 0.68 0.68 93 1013.8
20260905030913 72 79 3.0 5.0 0.62 0.67 0.67 93 1013.8
20260905030452 72 169 2.0 3.0 0.62 0.67 0.67 93 1013.8
20260905030410 72 191 2.0 3.0 0.62 0.67 0.67 93 1013.8